Theta_e
319 318 318 318 318 317 317 317 316 316 316 316 317 317 317 317 315 313 311 317 321 332 331 325 325 324 322 318 319 321 309 305 307 310 313 320 320 325 325 319 319 322 321 318 320
319 319 318 317 318 317 317 317 316 316 316 316 316 316 316 316 311 310 322 329 332 333 320 319 317 318 314 315 315 313 307 307 312 314 313 319 321 322 321 317 313 313 317 319 320
316 317 319 318 318 317 317 316 316 316 316 315 316 316 315 315 311 315 328 331 330 329 319 322 319 316 312 314 313 311 306 310 311 315 316 318 318 323 322 315 314 311 314 317 318
314 315 316 318 318 317 316 315 315 315 315 315 316 316 316 315 303 318 332 331 331 320 316 322 316 312 310 308 311 306 309 310 311 317 320 318 319 315 317 316 318 318 318 318 318
313 313 314 316 318 317 316 315 315 315 314 314 315 315 313 309 311 322 330 330 325 318 316 316 313 312 308 309 310 308 309 311 313 320 319 318 313 312 312 316 318 318 318 317 317
313 313 314 314 316 317 316 314 314 314 314 314 314 314 311 302 315 318 322 319 318 317 317 316 313 314 310 310 308 310 310 309 312 319 319 316 314 313 312 316 316 316 316 315 316
312 312 312 313 314 316 315 314 313 313 314 314 315 312 305 303 315 317 317 318 321 319 316 318 318 314 313 308 312 310 306 308 310 320 317 316 307 307 313 315 314 305 305 304 306
310 312 312 312 312 313 314 313 312 313 314 314 315 310 302 315 316 313 316 316 321 322 320 320 319 314 312 313 309 306 306 301 308 313 319 317 303 308 313 312 305 303 302 301 300
310 311 311 311 311 311 312 313 312 314 315 314 310 309 303 313 310 311 313 311 315 319 319 318 316 312 311 306 303 305 299 301 307 315 317 314 304 308 312 307 303 302 300 299 298
309 310 310 310 311 310 311 312 314 314 312 314 311 305 308 305 310 310 311 312 311 312 313 312 310 306 306 303 295 298 300 302 306 311 314 310 306 308 309 305 302 300 299 298 297
307 309 310 310 310 310 311 312 307 308 309 304 305 302 305 310 313 309 312 308 310 308 305 309 302 300 303 306 305 304 303 302 308 312 310 309 305 305 307 303 300 299 297 297 296
307 309 309 309 309 310 310 307 306 309 301 310 311 310 310 310 304 308 313 303 303 300 306 304 300 305 307 306 305 304 302 302 309 311 307 309 306 305 303 303 301 299 297 296 295
307 308 309 309 308 308 311 311 313 313 303 304 308 307 308 308 303 305 309 305 300 299 302 301 304 308 306 304 303 303 302 302 302 309 309 309 301 301 304 304 301 300 299 297 295
307 308 308 308 304 310 310 312 314 316 297 297 303 306 309 307 302 308 311 307 302 299 301 303 307 305 304 303 304 299 305 304 303 304 298 308 296 299 299 298 298 297 297 297 297
306 307 308 307 303 304 307 312 315 314 286 299 303 313 309 303 304 304 310 308 300 301 303 301 303 302 302 303 306 302 307 305 304 302 303 304 300 300 301 297 296 296 298 299 297
306 306 307 304 307 306 308 310 312 297 285 298 305 303 303 304 303 305 305 310 307 301 304 303 308 305 304 307 307 307 305 304 304 302 296 301 302 299 301 302 299 297 299 297 297
306 306 305 305 300 307 306 307 293 288 298 296 300 303 301 300 301 301 300 300 298 293 294 301 302 305 307 303 307 305 301 294 294 294 293 303 299 302 308 310 303 298 298 298 297
306 306 304 304 307 306 301 296 286 292 295 301 301 302 298 301 301 301 299 297 301 299 296 295 293 302 307 304 302 302 302 297 291 292 295 303 297 299 309 308 304 301 300 298 299
305 301 300 303 309 306 293 285 289 295 298 299 300 298 298 301 301 299 299 298 301 301 296 296 296 305 307 307 308 303 300 306 300 301 295 297 300 306 306 303 301 299 300 301 301
299 297 298 307 310 301 288 286 293 301 301 301 297 300 296 298 297 298 298 302 301 303 305 302 296 303 306 308 308 306 308 299 301 291 290 295 298 297 300 299 300 301 301 302 303
298 291 301 310 307 292 282 287 295 302 305 300 298 300 300 299 299 298 298 302 304 303 305 304 301 301 305 302 301 302 301 304 302 300 293 292 295 307 303 303 302 302 303 303 304
295 286 305 308 288 289 285 291 296 299 305 303 304 302 301 301 299 299 298 301 306 306 300 305 304 300 300 306 308 306 303 303 297 296 299 298 295 310 308 306 306 304 304 305 304
291 291 308 305 284 285 290 293 295 296 301 302 301 304 306 302 299 301 303 306 307 305 304 307 303 297 298 302 305 302 304 305 305 304 297 294 296 309 308 307 306 304 304 304 304
292 285 292 296 290 289 287 292 291 298 298 303 303 305 304 301 304 301 301 306 308 307 308 308 304 302 296 299 302 300 302 304 303 298 298 300 300 303 305 304 305 304 304 303 303
292 288 292 286 287 287 289 294 291 292 300 303 301 301 301 299 301 300 303 304 306 304 309 309 301 303 303 304 303 302 301 302 300 301 297 300 300 303 305 304 303 304 303 302 301
289 289 293 290 290 288 290 291 292 295 298 300 300 303 303 302 302 299 303 304 303 307 307 310 302 305 301 304 303 301 303 303 302 302 303 303 301 307 307 305 303 303 302 301 300
295 299 294 287 287 285 291 294 295 298 300 303 303 303 303 305 309 308 311 311 311 307 307 308 307 303 297 302 302 298 301 302 303 304 305 299 303 306 302 302 302 302 301 300 301
Wind_Speed
13 14 14 14 14 14 15 16 16 17 19 20 20 21 22 22 27 20 13 4 4 10 4 9 12 14 13 15 17 12 12 15 20 11 14 11 13 18 18 21 24 16 12 26 19
18 14 16 16 13 14 15 16 16 17 19 20 20 21 22 21 21 17 3 7 7 8 9 12 13 12 12 16 14 11 12 20 14 11 12 22 19 10 9 15 20 24 23 22 19
19 20 16 16 15 15 15 15 16 17 19 20 21 22 22 22 11 3 4 7 7 9 15 16 15 14 13 15 16 12 14 17 14 13 15 19 26 24 16 19 15 21 21 19 18
17 19 20 17 16 14 15 16 17 18 19 19 21 22 25 7 5 6 2 1 9 10 14 15 16 13 13 15 15 13 19 13 14 16 24 19 15 27 26 21 19 20 19 16 15
16 17 18 22 18 16 15 16 17 19 19 20 22 20 13 8 13 8 6 5 9 10 15 14 13 13 14 16 15 14 10 14 2 19 23 24 24 21 20 17 17 16 13 11 9
15 16 18 20 22 17 17 16 18 20 19 19 20 17 6 11 7 2 7 5 9 13 14 16 12 12 13 14 14 14 9 11 3 18 16 22 13 10 10 12 14 13 12 10 10
16 16 17 20 22 20 18 20 19 20 19 19 15 7 9 20 9 11 5 9 12 14 14 13 13 7 9 10 15 14 14 13 4 20 17 24 17 12 11 10 15 19 16 18 18
17 16 17 18 20 21 21 21 24 22 19 15 10 9 10 11 9 15 13 11 14 11 13 8 5 8 13 10 14 12 13 13 15 13 18 12 10 12 10 13 15 15 13 14 15
16 16 17 18 20 22 23 24 28 21 14 10 5 9 11 2 11 16 14 14 11 9 11 2 6 11 11 12 12 12 12 19 11 11 15 7 13 14 12 13 12 11 11 10 11
16 16 17 18 19 21 24 26 28 5 9 9 10 10 10 10 10 14 16 16 11 12 11 10 8 10 12 11 12 16 18 9 14 9 18 18 17 14 13 12 11 10 9 9 9
15 16 17 17 19 21 18 12 3 6 9 9 4 10 5 8 4 8 11 15 14 13 16 15 12 16 17 19 20 21 14 11 16 11 7 19 17 13 13 11 10 10 9 9 9
13 15 17 18 20 21 13 10 7 7 13 18 24 23 22 7 8 13 12 15 17 19 17 16 18 18 18 17 19 14 13 11 16 10 4 17 16 12 11 10 10 11 11 11 10
12 14 17 18 21 14 11 14 11 11 8 12 22 23 22 18 16 13 20 18 17 19 19 20 20 22 17 20 14 12 14 12 14 11 3 17 10 12 8 7 10 10 11 11 11
10 12 13 19 11 11 10 7 7 7 7 8 11 18 22 21 15 25 20 19 14 22 22 21 21 22 11 17 11 15 13 14 7 8 9 12 2 8 9 7 8 10 11 11 11
9 10 11 9 14 7 16 18 7 4 7 9 22 9 17 22 8 18 23 18 23 21 16 19 20 20 12 16 14 13 4 7 10 12 11 20 8 10 18 12 13 12 13 13 10
7 9 9 12 9 8 15 19 6 7 13 9 10 14 19 24 25 13 21 21 18 20 19 20 18 14 19 14 13 15 9 9 11 13 12 2 8 11 13 19 19 16 14 14 10
8 8 7 10 9 13 12 8 6 12 11 16 19 15 22 21 25 25 24 24 20 18 18 20 20 17 20 15 14 13 9 8 11 9 6 9 3 4 11 15 24 23 18 15 10
9 7 10 10 9 7 5 3 12 17 23 9 18 18 21 21 22 25 23 22 23 22 17 17 17 20 14 18 11 15 15 9 7 2 9 16 7 7 18 21 21 19 17 15 14
7 8 10 11 5 5 1 11 15 17 30 22 18 16 21 22 13 25 24 24 24 24 21 17 17 20 19 12 16 15 15 16 12 12 10 11 15 16 18 19 19 19 18 16 13
8 10 13 11 13 5 6 19 19 21 20 28 17 16 19 22 20 24 22 23 24 26 23 19 12 20 18 15 20 17 11 12 6 9 9 8 9 11 16 18 19 19 16 14 13
8 6 10 12 9 4 9 18 22 30 25 18 19 17 20 20 23 20 17 17 25 25 24 21 14 12 18 14 19 10 11 7 10 7 7 12 7 11 17 18 18 16 15 14 12
9 10 8 12 7 5 13 24 28 28 25 9 7 13 14 19 23 21 24 20 20 21 24 22 8 10 20 16 15 14 16 13 7 5 5 7 4 13 21 19 17 18 16 14 13
11 12 7 9 8 14 9 25 35 33 28 9 10 10 14 15 15 18 14 21 9 21 21 17 5 10 14 12 16 12 12 13 2 5 7 9 9 14 17 18 17 15 16 14 14
7 6 11 6 2 11 16 26 37 31 33 26 19 15 16 11 11 15 17 15 10 19 8 4 8 11 10 14 13 13 17 6 7 4 1 9 23 18 19 19 17 17 15 14 13
9 7 6 5 12 15 18 23 31 28 28 19 13 18 18 11 14 14 19 12 11 5 10 7 9 13 19 15 18 17 18 9 7 3 5 18 20 19 18 18 18 17 16 15 12
6 6 5 7 10 12 19 26 31 25 24 24 19 12 16 13 11 15 15 12 15 10 14 11 11 12 7 10 19 15 10 7 5 9 18 20 19 19 19 19 18 17 16 15 12
8 5 1 6 5 7 15 26 27 27 23 26 16 11 15 5 13 15 11 6 5 12 12 13 6 8 8 6 9 7 5 5 6 2 20 17 20 21 20 19 18 17 15 14 14
Wind_Direction
347 348 348 350 347 343 341 340 337 335 333 330 328 326 325 326 316 300 253 265 180 170 256 235 223 245 240 257 259 269 278 278 292 44 17 177 137 90 80 84 58 45 98 124 138
355 342 340 342 340 340 339 335 331 332 329 327 325 324 322 328 306 276 139 137 158 162 226 231 226 234 244 247 245 234 259 268 322 25 121 68 51 121 114 84 73 80 99 122 138
352 355 334 330 335 336 332 328 327 330 326 325 323 322 319 322 287 90 133 178 181 190 241 257 247 231 244 253 248 238 258 275 323 32 7 96 61 29 97 69 102 116 125 138 156
347 345 345 327 325 327 328 328 326 324 321 322 322 323 316 272 300 82 60 279 198 220 239 255 249 261 252 265 264 255 270 282 294 53 52 55 77 60 63 83 110 120 131 144 149
344 340 340 342 323 324 323 323 321 315 319 319 320 324 329 257 260 130 141 127 166 199 216 243 240 247 254 260 265 278 277 283 29 77 81 76 66 77 72 91 114 125 126 126 122
339 339 339 339 333 316 317 316 314 311 314 312 314 319 248 263 325 118 220 181 207 200 220 245 234 243 272 294 299 292 308 262 122 113 123 96 64 97 86 111 119 114 99 71 78
339 339 336 337 338 321 315 313 308 303 307 308 304 283 260 245 298 323 250 226 233 209 229 237 253 274 256 259 262 271 276 266 201 149 123 122 60 88 121 139 100 76 72 60 57
338 339 336 334 330 331 316 309 301 300 303 298 292 254 258 273 286 239 250 238 233 233 258 303 277 275 272 283 285 268 249 263 211 201 158 193 111 131 144 108 97 93 82 73 60
335 334 335 333 332 330 317 305 293 290 273 265 241 224 264 135 228 237 245 240 215 231 235 15 265 246 248 253 262 236 242 224 147 186 139 141 126 148 141 120 107 96 90 88 86
332 334 332 330 329 324 315 297 285 291 227 229 260 261 232 235 221 225 213 228 221 216 211 215 228 232 221 246 240 242 217 236 150 138 101 90 116 145 135 128 120 110 104 104 103
326 329 330 330 323 321 323 318 270 197 233 237 210 247 326 222 130 223 209 206 230 209 215 204 224 231 230 218 246 274 301 317 112 122 173 112 132 148 138 129 130 128 126 121 120
323 326 330 328 317 312 299 278 350 346 295 270 258 257 265 281 282 216 197 198 206 216 212 233 227 241 249 249 247 254 269 258 122 147 172 130 129 143 145 158 152 145 139 138 137
317 324 328 321 311 292 256 271 305 349 265 271 230 235 230 236 245 247 185 206 210 217 214 221 234 222 238 257 242 244 249 248 263 124 208 134 134 152 155 136 138 144 144 147 148
310 321 326 322 290 329 290 6 25 335 277 259 204 229 217 218 237 236 201 202 229 221 226 234 236 267 236 241 247 243 225 251 251 178 242 159 194 156 146 162 167 158 158 158 148
295 309 319 308 303 305 349 333 312 269 256 213 200 184 185 190 207 207 226 201 224 234 227 234 238 245 231 258 228 247 293 235 238 249 233 200 222 152 174 185 186 172 174 146 151
265 293 316 284 255 308 339 320 306 220 229 225 124 183 184 199 217 230 197 206 230 243 241 249 235 227 247 233 243 235 199 250 257 259 239 264 232 175 189 201 172 171 151 150 147
253 272 274 298 287 349 334 321 206 233 220 208 169 189 199 197 206 225 188 201 209 210 235 230 239 233 236 228 224 235 224 229 227 233 359 289 244 139 194 162 161 164 153 151 162
247 264 254 256 272 34 355 238 240 217 220 228 173 191 204 195 209 216 197 209 209 217 218 219 211 222 216 231 197 222 219 232 230 307 247 225 88 72 78 104 132 147 147 150 171
238 258 248 248 208 102 329 221 216 229 205 232 181 191 204 206 200 215 212 206 208 218 221 214 221 205 220 202 218 204 230 246 253 248 262 108 97 102 108 118 129 141 160 152 158
237 251 251 235 125 132 223 232 240 265 217 227 203 197 202 201 200 203 207 212 216 206 229 246 228 224 179 203 234 240 214 241 228 275 310 108 134 130 143 139 146 153 144 152 174
233 245 240 180 128 159 229 226 239 257 289 231 221 217 227 202 199 198 213 217 210 206 220 235 258 224 175 192 217 213 248 231 249 160 184 252 83 136 145 146 150 146 147 162 159
222 223 158 141 187 196 240 228 244 267 294 276 309 277 232 217 193 221 208 215 196 213 205 227 245 235 193 183 235 215 212 238 243 279 15 320 83 112 135 148 137 140 161 144 127
219 227 148 170 226 222 263 238 243 256 275 242 256 271 268 230 202 211 225 225 212 207 199 212 203 234 195 190 213 241 233 222 338 0 257 270 134 121 126 130 130 144 130 130 122
226 219 202 184 227 271 218 241 234 241 259 280 296 288 257 247 224 194 238 213 175 214 164 177 200 250 205 193 205 221 243 225 238 240 331 98 133 142 138 131 137 129 133 133 124
212 221 237 208 215 233 264 243 228 233 229 258 259 257 266 225 227 201 220 184 172 173 158 179 221 252 253 184 198 203 224 214 243 332 32 142 141 146 140 138 134 136 136 137 138
216 214 208 264 245 255 251 239 220 226 228 230 238 233 241 233 223 199 199 177 185 181 172 193 221 249 207 273 179 186 187 179 113 87 115 122 132 134 131 129 136 142 143 135 139
222 153 252 262 257 282 258 229 230 219 221 245 241 287 229 271 333 278 147 166 162 166 175 189 207 178 182 193 118 138 130 135 120 122 133 138 136 134 137 142 145 145 142 135 122